Location: Gouvernes
(48.8601°N, 2.6907°E)
Time: 16:13:23
(UTC+00:00)

MOS 1-B - Pass Details

Date: 16 October 2021
Orbit: 905 x 913 km, 99.4° (Epoch: 28 November)

Event Time Altitude Azimuth Distance (km) Brightness Sun altitude
Rises 17:15:27 0° 157° (SSE) 3,531 7.3 -3.7°
Reaches altitude 10° 17:17:51 10° 155° (SSE) 2,592 6.6 -4.1°
Maximum altitude 17:23:37 77° 71° (ENE) 939 4.4 -5.1°
Drops below altitude 10° 17:29:25 10° 347° (NNW) 2,604 6.8 -6.0°
Sets 17:31:51 0° 346° (NNW) 3,549 7.5 -6.4°
